Home   Weather   USA   Maryville   Past weeks
Flag for USA

Past Weather in Maryville, Missouri, USA — Yesterday and Last 2 Weeks

Currently: 72 °F. Overcast. (Weather station: Shenandoah Municipal, USA). See more current weather

Past Weather in Maryville — Graph

°F

Maryville Temperature Yesterday

Maximum temperature yesterday: 86 °F (at 3:35 pm)
Minimum temperature yesterday: 68 °F (at 11:55 pm)
Average temperature yesterday: 80 °F

High & Low Weather Summary for the Past Weeks

 TemperatureHumidityPressure
High91 °F (Jun 13, 3:35 pm)100% (Jun 5, 6:15 am)30.22 "Hg (Jun 5, 6:15 am)
Low52 °F (Jun 5, 5:15 am)17% (Jun 6, 5:55 pm)29.59 "Hg (Jun 4, 4:35 pm)
Average75 °F65%29.87 "Hg
* Reported Jun 4 4:15 pm — Jun 19 4:15 pm, Maryville. Weather by CustomWeather, © 2024

Note: Actual official high and low records may vary slightly from our data, if they occured in-between our weather recording intervals... More about our weather records

Maryville Weather History for the Previous 24 Hours

Scroll right to see more
 ConditionsComfort  
Time TempWeatherWind HumidityBarometerVisibility
4:15 pm
Wed, Jun 19
72 °FOvercast.8 mph88%30.21 "Hg10 mi
3:35 pm70 °FOvercast.9 mph94%30.21 "Hg10 mi
3:15 pm70 °FOvercast.8 mph94%30.21 "Hg10 mi
2:55 pm72 °FOvercast.N/A88%30.20 "Hg10 mi
2:15 pm70 °FOvercast.7 mph94%30.20 "Hg10 mi
1:55 pm72 °FMostly cloudy.N/A94%30.20 "Hg10 mi
1:35 pm70 °FCloudy.N/A100%30.20 "Hg10 mi
1:15 pm70 °FPartly sunny.N/A100%30.21 "Hg7 mi
12:55 pm70 °FLight rain. Overcast.N/A100%30.21 "Hg1 mi
12:15 pm70 °FOvercast.N/A94%30.22 "Hg10 mi
11:55 am70 °FOvercast.N/A94%30.21 "Hg10 mi
11:35 am68 °FLow clouds.N/A100%30.21 "Hg10 mi
11:15 am68 °FMore clouds than sun.N/A100%30.21 "Hg10 mi
10:55 am70 °FMostly cloudy.9 mph100%30.19 "Hg10 mi
10:35 am70 °FMostly cloudy.N/A100%30.19 "Hg10 mi
10:15 am70 °FLow clouds.6 mph94%30.19 "Hg10 mi
9:55 am68 °FDrizzle. Cloudy.7 mph100%30.18 "Hg8 mi
9:15 am68 °FLow clouds.5 mph100%30.17 "Hg10 mi
8:55 am68 °FMostly cloudy.6 mph100%30.16 "Hg10 mi
7:55 am68 °FMostly cloudy.8 mph100%30.14 "Hg10 mi
7:35 am68 °FMore clouds than sun.7 mph100%30.12 "Hg9 mi
7:15 am68 °FMore clouds than sun.6 mph94%30.11 "Hg10 mi
6:15 am68 °FFog.7 mph100%30.10 "Hg5 mi
5:55 am68 °FLow clouds.5 mph100%30.09 "Hg7 mi
5:35 am68 °FMostly cloudy.8 mph100%30.07 "Hg10 mi
5:15 am68 °FMostly cloudy.6 mph100%30.07 "Hg10 mi
4:55 am68 °FLow clouds.8 mph100%30.07 "Hg10 mi
4:35 am68 °FLow clouds.8 mph100%30.06 "Hg10 mi
4:15 am68 °FLow clouds.8 mph100%30.05 "Hg10 mi
3:55 am68 °FLow clouds.No wind100%30.05 "Hg10 mi
3:15 am68 °FLow clouds.5 mph100%30.04 "Hg10 mi
2:55 am68 °FLow clouds.5 mph100%30.03 "Hg10 mi
2:35 am68 °FPassing clouds.7 mph100%30.02 "Hg10 mi
2:15 am68 °FPartly cloudy.3 mph100%30.00 "Hg10 mi
1:55 am68 °FLight rain. Overcast.No wind100%29.99 "Hg10 mi
1:35 am68 °FLight rain. Overcast.3 mph100%30.00 "Hg9 mi
1:15 am68 °FLight rain. Overcast.6 mph100%29.99 "Hg6 mi
12:35 am68 °FPartly cloudy.10 mph100%29.98 "Hg10 mi
12:15 am68 °FMostly cloudy.10 mph100%29.98 "Hg7 mi
11:55 pm
Tue, Jun 18
68 °FLight rain. Mostly cloudy.13 mph100%29.96 "Hg6 mi
11:35 pm70 °FLight rain. Partly cloudy.15 mph100%29.96 "Hg6 mi
11:15 pm72 °FMostly cloudy.9 mph94%29.89 "Hg9 mi
10:55 pm72 °FLight rain. Overcast.14 mph94%29.88 "Hg3 mi
10:15 pm75 °FMostly cloudy.12 mph89%29.88 "Hg10 mi
9:55 pm75 °FMostly cloudy.14 mph89%29.86 "Hg10 mi
9:15 pm75 °FOvercast.22 mph89%29.86 "Hg10 mi
8:55 pm77 °FHeavy rain. Mostly cloudy.18 mph89%29.86 "Hg4 mi
8:15 pm79 °FSunny.14 mph79%29.81 "Hg10 mi
7:55 pm79 °FScattered clouds.17 mph79%29.82 "Hg6 mi
7:15 pm82 °FMostly cloudy.14 mph66%29.82 "Hg10 mi
6:55 pm82 °FBroken clouds.13 mph66%29.82 "Hg10 mi
6:35 pm82 °FOvercast.14 mph66%29.81 "Hg10 mi
6:15 pm84 °FMore clouds than sun.20 mph62%29.80 "Hg10 mi
5:55 pm84 °FMostly cloudy.22 mph62%29.77 "Hg10 mi
5:35 pm84 °FOvercast.N/A62%29.79 "Hg10 mi
Weather by CustomWeather, © 2024

See weather overview